Fireball Reports

Feb 01, 2022 - Feb 28, 2022
Reports found: 1806  in February 2022  Page 2 / 37
IDUT Date & TimeLocal Date & TimeCountryCityStateDur.Magn.D. SoundC. SoundFrag.ObserverExp. Level
Event 1394-2022
1394a2022-02-27 02:45 UT2022-02-27 03:45 CETFR Bourg-de-PéageAuvergne-Rhône-Alpes≈3.5s -5--?AnonymA 1
Event 1393-2022
1393a2022-02-26 21:00 UT2022-02-26 21:00 GMTGB Paddock WoodEngland≈3.5s -7--MarcusS 3
Event 1392-2022
1392a2022-02-26 20:00 UT2022-02-26 21:00 CETNL Etten-LeurNoord-Brabant≈3.5s -12---TheoV 1
Event 1391-2022
1391a2022-02-26 11:30 UT2022-02-26 22:30 AEDTAU HowquaVictoria≈3.5s -5--DeanC 1
Event 1390-2022
1390a2022-02-26 00:30 UT2022-02-26 01:30 CETNL KrommenieNoord-Holland≈7.5s -8-KoS 3
Event 1389-2022
1389a2022-02-25 05:18 UT2022-02-25 00:18 ESTUS ShipshewanaIN≈3.5s -13--JohnH 2
Event 1388-2022
1388a2022-02-22 21:44 UT2022-02-22 22:44 CETFR WizernesHauts-de-France≈7.5s -15--Mathilde F 3
Event 1387-2022
1387a2022-02-28 17:49 UT2022-02-28 18:49 CETDE KirchheimThüringen≈7.5s -4??-JürgenS 4
1387b2022-02-28 17:49 UT2022-02-28 18:49 CETDE DemminMecklenburg-Vorpommern≈7.5s -6??-WolfgangH 4
1387c2022-02-28 17:49 UT2022-02-28 18:49 CETDE MallißMecklenburg-Vorpommern≈7.5s -6??-SirkoM 4
1387d2022-02-28 17:49 UT2022-02-28 18:49 CETDE TaucheBrandenburg≈7.5s -10??-AndréK 4
1387e2022-02-28 17:35 UT2022-02-28 18:35 CETDE BerlinBerlin≈3.5s -5---DustinB 1
1387f2022-02-28 17:49 UT2022-02-28 18:49 CETDE BeetzseeheideBrandenburg≈7.5s -8??-SirkoM 4
1387g2022-02-28 17:49 UT2022-02-28 18:49 CETDE RadebeulSachsen≈7.5s -7??-MartinF 4
1387h2022-02-28 17:49 UT2022-02-28 18:49 CETDE DrebachSachsen≈7.5s -7??-GerhardL 4
1387i2022-02-28 17:49 UT2022-02-28 18:49 CETDE SonnebergThüringen≈7.5s -5??-PeterK 5
Event 1385-2022
1385a2022-03-01 02:28 UT2022-02-28 18:28 PSTUS Los AngelesCA≈1.5s -12---natachaS 1
1385b2022-03-01 02:22 UT2022-02-28 18:22 PSTUS AltadenaCA≈3.5s -7--BrianB 2
1385c2022-03-01 02:05 UT2022-02-28 18:05 PSTUS Santa MonicaCA≈1.5s -4--?KatherineS 1
1385d2022-03-01 02:25 UT2022-02-28 18:25 PSTUS Los AngelesCA≈1.5s -10--TomasK 3
1385e2022-03-01 02:20 UT2022-02-28 18:20 PSTUS Los AngelesCA≈1.5s -13--CiciR 2
1385f2022-03-01 02:20 UT2022-02-28 18:20 PSTUS ClaremontCA≈3.5s -13---CCH 1
1385g2022-03-01 02:12 UT2022-02-28 18:12 PSTUS AnaheimCA≈3.5s -10---Beatrice W 3
1385h2022-03-01 02:15 UT2022-02-28 18:15 PSTUS CastaicCA≈1.5s -27??-MelissaM 4
1385i2022-03-01 02:19 UT2022-02-28 18:19 PSTUS Aliso ViejoCA≈1.5s -12--KevinS 3
1385j2022-03-01 02:25 UT2022-02-28 18:25 PSTUS HighlandCA≈3.5s -13--RicardoM 3
1385k2022-03-01 02:20 UT2022-02-28 18:20 PSTUS MurrietaCA≈3.5s -11???KatieR 1
1385l2022-03-01 02:26 UT2022-02-28 18:26 PSTUS Pismo BeachCA≈1.5s -12---SageC 3
1385m2022-03-01 02:30 UT2022-02-28 18:30 PSTUS TempletonCA≈3.5s -10?Christine F 3
1385n2022-03-01 02:24 UT2022-02-28 18:24 PSTUS KingsburgCA≈3.5s -5?-BrendaG 2
1385o2022-03-01 02:31 UT2022-02-28 18:31 PSTUS ModestoCA<1s -13---KellyH 1
1385p2022-03-01 02:24 UT2022-02-28 18:24 PSTUS Santa CruzCA≈1.5s 0---daniA 1
1385q2022-03-01 02:21 UT2022-02-28 18:21 PSTUS SalinasCA≈1.5s 0---FranciscoR 1
1385r2022-03-01 02:38 UT2022-02-28 18:38 PSTUS FresnoCA≈1.5s 0?-EmmanuelC 1
1385s2022-03-01 02:30 UT2022-02-28 19:30 MSTUS WickenburgAZ≈1.5s -13--?BonnieH 2
1385t2022-03-01 02:21 UT2022-02-28 18:21 PSTUS GilroyCA≈3.5s -18---sandra S 1
1385u2022-03-01 02:16 UT2022-02-28 18:16 PSTUS MindenNV≈3.5s -23---DebraM 1
1385v2022-03-01 02:17 UT2022-02-28 18:17 PSTUS GlendaleCA≈3.5s 0--JjR 2
1385w2022-03-01 02:22 UT2022-02-28 18:22 PSTUS Santa CruzCA≈1.5s -24-?-LindaO 1
1385x2022-03-01 02:21 UT2022-02-28 18:21 PSTUS Newport BeachCA≈3.5s -9--RobM 5
1385y2022-03-01 02:00 UT2022-02-28 18:00 PSTUS Thousand OaksCA≈1.5s -20--MelissaG 1
Event 1384-2022
1384a2022-02-27 05:05 UT2022-02-27 00:05 ESTUS OrlandoFL≈3.5s -5--?ERICP 1
Event 1383-2022
1383a2022-02-28 04:37 UT2022-02-27 22:37 CSTUS Bay CityTX≈1.5s -12??-emilyT 2
Event 1382-2022
1382a2022-02-28 04:34 UT2022-02-27 23:34 ESTUS Upper ArlingtonOH<1s -9-?JosephM 1
1382b2022-02-28 04:42 UT2022-02-27 23:42 ESTUS CincinnatiOH≈1.5s -17---BradM 2
1382c2022-02-28 04:43 UT2022-02-27 22:43 CSTUS La PorteIN≈7.5s -13-??CarissaS 2
1382d2022-02-28 04:50 UT2022-02-27 23:50 ESTUS ColumbusOH≈1.5s 0---Mary BethH 1
1382e2022-02-28 04:50 UT2022-02-27 23:50 ESTUS Grove CityOH≈1.5s -10--JarrodD 2
Event 1381-2022
1381a2022-02-28 03:12 UT2022-02-27 22:12 ESTUS BostonMA≈1.5s -12--?JohnM 1
Event 1380-2022
1380a2022-02-28 03:01 UT2022-02-27 21:01 CSTUS ManitowocWI≈1.5s -19---DaveR 3